Theta_e
305 305 306 306 306 307 306 306 305 302 302 305 303 302 302 302 302 303 305 308 310 305 307 307 308 308 310 311 309 308 314 315 314 314 312 309 309 307 305 307 305 305 304 301 299
305 304 304 305 306 306 305 303 302 299 302 304 303 305 306 304 303 303 302 303 303 305 307 308 309 309 310 310 310 313 314 312 311 312 311 307 306 306 306 306 305 304 301 299 298
303 303 303 304 305 306 303 302 300 299 300 305 304 304 305 308 304 303 302 303 302 305 306 306 306 308 308 309 309 311 314 311 309 309 307 305 305 304 305 305 303 304 301 298 297
301 301 302 303 304 304 301 300 298 298 300 302 304 304 302 307 308 302 301 302 302 305 306 306 308 308 309 310 307 310 308 309 306 305 306 305 304 304 304 302 301 300 298 297 295
301 300 300 301 302 303 299 298 298 298 300 301 303 306 302 304 303 302 301 302 303 304 304 306 307 307 308 307 309 308 304 303 303 304 304 304 304 304 302 301 299 298 296 295 294
300 299 299 300 299 298 298 298 298 299 301 302 303 303 302 306 301 302 301 302 303 304 304 305 306 306 305 304 305 303 303 303 304 303 303 304 303 304 301 300 300 299 296 294 293
301 300 299 298 296 297 298 298 298 300 303 304 302 302 303 302 301 302 301 301 302 303 303 302 303 306 304 303 301 302 303 304 302 303 302 304 302 301 299 299 299 298 296 294 292
301 300 299 298 296 297 298 299 299 301 304 303 301 301 302 301 301 302 301 302 302 302 302 301 302 302 303 302 302 303 304 306 302 303 301 302 303 301 298 301 299 297 296 294 292
302 300 299 297 296 297 299 300 301 302 303 303 302 302 302 300 301 302 302 302 302 301 300 301 301 302 301 305 305 304 305 305 302 301 301 302 302 300 299 300 299 297 296 295 294
303 300 299 296 296 299 300 301 302 302 301 301 300 304 301 301 300 301 302 302 303 302 303 304 304 305 303 303 305 304 303 302 301 302 302 302 302 300 299 299 298 297 296 295 294
302 300 299 296 297 300 301 302 302 304 303 302 302 301 300 301 300 301 301 301 302 303 303 303 305 305 304 302 302 303 303 302 300 301 301 302 302 300 299 298 298 297 296 296 294
302 300 299 296 298 300 302 301 301 304 304 302 301 302 302 301 300 302 301 303 303 303 302 305 305 302 301 301 301 302 302 303 302 301 301 301 301 299 298 296 296 297 296 295 294
302 300 299 296 298 300 301 301 301 301 306 303 302 302 302 301 301 302 301 300 302 302 302 305 304 302 301 302 302 301 302 302 303 301 300 302 302 300 297 295 295 294 294 293 293
303 300 299 296 298 299 300 301 300 299 312 304 302 302 302 302 302 300 300 301 301 303 303 304 301 302 301 302 302 302 302 302 302 301 304 300 307 302 298 296 295 294 294 293 292
304 301 298 295 296 298 298 301 300 303 333 304 301 301 301 301 301 301 300 301 302 301 301 302 302 302 303 303 301 304 302 302 302 302 302 302 303 301 298 297 296 295 293 292 291
303 302 299 295 296 296 299 300 300 322 326 305 301 303 302 302 301 301 302 301 300 302 302 301 300 301 302 301 301 300 300 300 300 300 306 301 301 301 300 300 296 294 292 291 291
304 302 299 295 298 297 299 300 317 327 305 306 303 302 301 302 302 300 302 302 302 304 304 302 301 300 300 302 300 299 299 311 309 307 310 297 300 302 300 297 297 293 292 290 290
303 302 299 295 297 297 297 308 321 313 310 300 302 301 302 302 302 301 301 302 301 300 303 304 304 301 300 301 302 301 300 312 309 307 303 297 303 300 297 295 293 292 291 289 289
303 301 298 295 297 297 302 311 316 311 304 303 301 305 303 302 302 302 301 301 301 300 305 301 302 298 298 298 299 300 300 296 299 289 302 300 299 297 294 293 291 291 290 289 289
301 298 294 295 296 296 306 310 307 304 301 301 313 306 307 304 302 303 302 301 301 300 297 299 303 298 298 297 298 299 297 300 301 304 304 299 296 300 295 295 292 291 290 289 288
300 299 294 296 296 299 303 305 299 299 302 304 308 302 305 304 303 304 305 300 300 298 297 298 303 299 298 299 300 299 301 297 299 298 305 303 301 298 298 297 294 292 290 289 289
296 302 294 296 300 296 300 297 297 299 299 300 302 301 305 303 304 303 304 300 299 298 300 297 300 302 300 294 293 296 299 299 309 300 295 298 301 294 295 297 295 292 289 288 288
300 293 293 294 300 296 292 296 297 299 300 300 301 301 299 303 307 302 301 294 297 299 300 298 301 303 299 294 293 296 297 295 292 297 298 304 302 291 292 292 291 290 289 289 288
296 297 295 295 296 298 297 298 297 296 299 299 299 299 300 299 297 300 298 294 295 297 298 296 297 307 311 301 297 296 296 295 298 301 301 299 304 293 292 291 290 289 289 289 288
298 300 297 297 297 295 297 297 298 299 297 298 298 302 303 300 299 299 295 295 296 299 294 297 302 292 290 291 293 295 296 295 295 299 302 303 297 300 295 292 291 289 288 287 286
298 296 295 298 298 295 298 298 299 298 299 298 301 300 301 303 306 299 298 299 301 294 296 292 302 292 293 290 290 293 294 296 296 298 293 293 293 295 294 292 289 288 288 287 287
295 294 303 300 299 297 298 299 298 298 297 298 299 300 300 303 297 298 296 298 300 299 298 297 296 297 303 287 289 295 291 294 296 297 298 297 298 291 288 289 289 288 288 288 286
Wind_Speed
6 5 3 2 2 3 3 3 4 6 9 9 13 14 11 15 11 8 11 12 13 15 10 5 6 5 10 5 7 2 4 8 6 8 7 4 4 4 3 13 16 8 10 6 11
6 5 4 2 2 2 2 3 4 7 9 10 9 7 4 1 10 18 13 12 12 12 6 9 5 8 5 5 5 5 4 4 3 7 10 7 6 5 6 11 11 11 11 9 12
7 5 5 3 2 2 2 3 4 6 7 8 6 2 2 0 2 5 17 13 12 9 4 4 4 4 6 5 7 6 5 11 7 8 7 9 12 3 9 9 7 7 8 12 16
7 5 4 4 3 1 3 3 5 6 8 6 5 2 4 2 1 7 15 13 10 7 2 6 4 5 5 6 4 9 7 5 4 3 5 8 7 12 13 6 9 9 10 14 19
8 6 4 3 4 1 4 5 6 8 7 5 3 1 2 5 4 10 12 12 9 4 8 3 7 5 6 7 14 15 8 7 7 9 9 11 12 13 12 9 9 10 13 15 16
8 6 5 4 4 4 4 6 7 8 7 5 2 2 2 4 3 10 10 10 11 12 9 8 5 9 10 5 5 6 12 10 8 9 5 12 9 1 7 1 8 10 12 14 16
9 7 5 5 6 6 6 6 8 7 6 5 5 6 9 5 3 7 8 11 13 9 5 6 6 4 6 11 4 8 12 9 9 5 5 10 8 9 8 8 12 11 11 13 15
12 9 6 6 8 8 8 8 8 6 5 4 4 4 5 3 5 8 4 8 10 11 15 10 15 11 4 9 4 4 3 4 3 5 2 5 4 10 6 10 12 11 10 11 13
15 11 8 8 9 10 10 9 8 6 5 3 3 4 4 2 3 7 7 4 6 8 9 8 6 5 3 7 4 2 4 5 5 6 2 3 9 6 5 8 10 10 10 9 10
16 13 10 10 11 11 12 10 8 6 5 7 6 4 1 1 2 3 5 5 4 2 2 6 5 3 3 3 5 7 5 3 4 5 11 13 11 7 6 7 9 9 9 8 9
18 15 12 11 12 13 17 11 4 3 11 4 1 5 3 1 3 6 6 2 3 5 2 4 2 4 4 1 2 8 9 7 4 3 4 8 10 7 6 6 7 7 6 7 9
20 17 13 12 13 14 15 3 2 6 9 5 3 4 3 2 3 6 7 1 3 3 1 2 4 4 5 4 7 8 10 4 4 5 3 9 9 7 6 4 3 4 6 7 7
21 18 13 12 13 12 10 4 11 10 5 3 2 2 1 1 3 3 3 2 4 3 3 3 5 5 3 5 7 4 2 4 2 4 6 11 5 7 5 6 5 4 3 5 7
23 20 16 13 9 10 5 13 11 4 3 3 1 2 1 1 4 1 2 2 3 5 6 6 2 4 7 4 1 4 3 6 5 4 2 3 3 10 10 7 4 4 5 6 7
25 23 19 20 5 8 7 17 10 2 1 4 2 2 2 1 3 3 3 2 6 5 3 3 5 8 4 3 1 4 5 5 3 2 2 5 4 5 12 10 8 5 3 4 4
26 22 21 16 8 8 21 17 5 4 6 3 2 4 4 3 2 1 2 6 4 5 9 4 1 2 3 5 3 13 8 6 3 1 3 4 4 9 11 17 11 6 3 2 4
29 25 23 15 6 20 22 8 4 4 1 5 4 5 2 4 3 1 3 5 4 6 4 2 1 1 2 8 4 2 5 2 2 3 3 2 4 7 13 8 11 10 6 2 2
30 25 24 15 13 27 11 3 5 3 6 2 5 8 5 5 2 3 6 5 5 2 5 7 5 8 2 1 5 7 4 2 4 3 2 2 6 2 6 8 7 6 5 2 0
31 23 10 15 24 25 4 4 9 8 9 13 4 4 4 3 3 4 7 5 8 11 3 6 3 2 2 1 2 5 5 4 7 1 2 3 4 5 9 11 10 9 7 5 1
29 14 5 17 25 9 2 12 6 5 10 4 8 3 9 8 8 9 11 5 6 8 2 6 5 0 3 1 4 2 7 3 0 3 5 4 5 8 14 19 16 13 10 7 4
21 5 11 21 18 3 8 6 5 5 6 8 6 6 4 8 10 7 7 3 4 7 3 5 2 4 3 8 9 4 3 1 2 2 3 3 5 4 15 18 20 15 11 9 8
13 5 17 26 5 2 9 7 5 7 1 3 4 4 8 9 7 9 12 2 8 11 7 5 4 4 4 1 2 2 4 8 4 6 2 2 6 0 4 11 17 14 11 9 8
10 4 7 7 11 5 1 6 6 7 7 7 5 2 3 8 4 4 6 3 3 8 7 7 2 3 2 1 2 6 6 3 3 1 8 5 5 1 5 10 13 13 11 10 9
6 6 3 5 3 12 10 11 8 2 5 5 6 5 5 3 2 6 5 1 1 3 3 5 2 5 8 4 5 7 11 13 6 5 6 11 4 7 11 13 13 12 11 11 10
4 5 10 10 14 8 18 18 22 8 2 4 2 7 10 5 3 5 4 4 2 3 3 2 4 3 1 2 3 3 8 18 16 14 12 7 14 17 16 18 16 12 11 12 11
7 6 4 5 19 18 20 20 29 9 12 9 6 16 6 10 10 9 9 6 5 4 5 3 3 2 3 4 3 5 12 17 20 15 13 10 12 6 6 10 12 13 13 14 12
8 6 11 16 17 20 24 21 22 19 6 3 16 10 13 7 9 9 6 8 10 11 8 7 6 3 6 2 3 9 22 20 11 13 14 14 17 9 7 11 13 15 14 14 13
Wind_Direction
167 158 150 122 72 55 64 60 57 80 107 108 105 89 90 78 81 67 45 334 323 347 3 5 23 20 62 63 34 321 92 116 121 143 126 109 142 76 86 90 59 60 62 30 1
177 169 154 148 80 53 39 72 79 103 122 129 131 108 111 31 55 55 2 355 347 349 24 38 33 28 66 36 31 41 96 101 84 108 118 95 94 93 126 108 98 86 66 37 28
189 183 154 157 109 38 55 70 93 107 127 140 154 136 348 187 94 359 356 3 1 356 29 57 78 57 62 35 18 31 103 124 95 101 118 106 78 57 128 79 47 74 56 39 37
197 186 176 167 138 122 107 106 105 117 126 139 145 117 46 114 181 337 355 3 7 11 52 49 56 68 61 57 17 104 82 102 108 72 106 107 101 75 55 62 87 80 65 47 41
203 187 182 171 142 170 129 124 122 126 126 128 131 115 120 62 46 354 5 13 29 34 45 55 65 94 89 99 86 98 109 75 90 88 79 112 94 92 83 101 100 89 68 54 47
207 199 178 171 148 135 127 129 127 126 123 116 109 129 124 85 26 359 16 45 51 63 51 47 93 108 85 63 40 112 104 104 92 77 73 111 76 34 57 166 104 89 70 60 50
209 208 197 164 151 144 136 133 127 126 119 101 105 105 61 97 36 17 42 48 52 72 74 54 106 87 127 106 112 111 101 103 44 10 109 126 53 28 6 117 104 82 75 66 52
210 210 195 171 158 149 141 136 127 123 112 102 86 88 76 39 46 36 68 59 60 79 86 81 87 86 55 121 81 97 131 146 40 3 145 239 92 35 60 116 99 89 75 64 55
214 210 199 175 158 156 145 133 125 117 102 113 87 99 115 74 30 20 35 47 63 66 70 76 61 76 116 123 116 52 154 127 137 9 272 230 127 66 82 108 93 80 71 64 59
213 209 204 176 165 155 140 128 120 107 80 86 79 118 32 88 4 357 25 48 52 345 61 43 58 93 94 201 189 172 148 130 129 36 73 97 113 105 79 89 84 77 70 62 55
209 207 200 177 169 159 145 126 117 88 43 40 62 95 125 109 53 27 7 6 30 50 71 27 129 133 99 344 51 115 129 126 111 88 101 112 122 106 89 93 88 78 72 58 45
204 204 198 179 171 167 165 194 209 132 106 25 91 69 87 120 114 15 14 70 53 91 353 94 99 105 98 86 100 106 127 100 99 39 122 149 120 107 95 75 83 96 73 45 31
198 199 195 174 170 173 189 208 151 132 79 35 24 59 67 29 101 2 5 99 83 87 25 117 120 140 102 107 108 59 120 155 96 116 67 146 164 168 113 111 109 91 91 58 30
195 195 184 167 168 176 204 175 165 155 99 153 125 47 12 124 68 326 18 78 70 116 97 82 107 139 123 120 11 135 72 106 118 193 220 262 233 202 175 163 156 127 82 54 36
193 190 184 173 178 172 177 164 161 137 255 78 118 30 29 83 108 45 26 55 117 116 208 118 158 151 149 117 148 115 105 94 102 130 236 184 247 114 172 202 192 155 98 66 38
195 190 183 188 192 184 154 152 147 64 240 154 136 155 137 57 29 97 68 55 113 89 58 100 40 5 75 66 85 137 103 80 84 146 233 154 239 190 189 217 186 180 157 99 29
195 189 189 176 185 163 154 141 66 178 86 181 175 166 145 134 119 96 157 154 165 130 157 129 73 84 156 103 111 125 138 166 216 207 239 113 252 295 196 183 180 172 165 124 33
193 187 195 188 173 160 155 79 175 200 185 124 124 125 181 163 130 140 141 190 222 152 142 166 202 188 156 266 182 180 191 224 272 219 115 148 231 251 190 170 167 168 165 159 45
181 178 197 190 167 167 153 193 192 188 155 143 105 130 185 185 151 167 194 207 204 193 188 155 132 89 26 163 259 162 205 101 105 113 236 205 266 221 176 193 196 193 188 193 180
160 163 213 176 168 167 120 212 201 135 124 166 156 158 175 180 164 189 187 188 185 190 247 173 115 190 139 187 57 257 138 128 213 223 247 208 265 244 202 208 202 201 201 193 185
149 170 175 164 147 198 202 213 183 176 137 154 165 134 168 174 185 179 190 175 160 155 161 149 139 141 158 208 186 149 191 67 110 225 244 282 233 199 209 203 198 197 192 185 182
144 180 169 161 165 182 203 184 159 155 178 140 120 110 162 164 158 198 199 220 153 154 172 195 119 162 183 56 326 295 220 183 212 194 222 331 265 309 236 199 190 184 179 178 179
143 110 198 206 199 193 191 195 190 143 178 159 143 133 146 163 162 178 179 17 149 167 158 187 164 118 201 207 181 224 201 173 88 95 193 186 246 66 147 166 180 175 176 179 175
133 131 158 225 279 180 166 191 184 190 154 143 126 114 122 115 14 156 144 136 189 158 68 119 170 201 231 126 132 196 197 190 190 192 178 227 254 202 196 193 191 190 185 184 180
165 178 169 187 206 183 184 170 190 159 211 174 135 210 158 122 109 159 131 133 78 141 93 130 230 189 218 223 225 228 198 194 204 210 209 223 219 240 198 201 200 183 185 183 187
147 147 155 144 168 178 190 200 190 175 151 209 201 188 176 157 184 178 142 187 177 150 170 149 188 151 258 224 226 249 231 213 218 221 255 250 263 194 203 173 177 188 184 193 194
123 130 153 163 170 180 201 185 196 175 213 216 179 149 191 167 97 90 21 109 135 152 164 157 141 130 261 36 290 261 217 211 200 206 212 217 233 151 183 194 195 189 187 191 187